Location: Góry Miechowskie
(50.3599°N, 20.1803°E)
Time: 22:41:13
(UTC+00:00)

Vanguard 3 - Pass Details

Date: 21 September 2024
Orbit: 507 x 3224 km, 33.4° (Epoch: 02 October)

Event Time Altitude Azimuth Distance (km) Brightness Sun altitude
Exits shadow 02:28:48 - 201° (SSW) 5,695 11.0 -18.7°
Reaches altitude 10° 02:31:55 10° 193° (SSW) 5,265 10.9 -18.2°
Maximum altitude 02:44:27 27° 144° (SE) 4,671 11.1 -16.4°
Drops below altitude 10° 02:58:51 10° 97° (E) 6,129 12.7 -14.2°
Sets 03:04:34 0° 87° (E) 7,024 13.6 -13.4°
